Regional Weather Roundup
Issued by NWS

Home | Current Version | Previous Version | Graphics & Text | Print | Product List | Glossary Off
Versions: 1 2 3 4 5 6 7 8 9 10 11 12 13 14 15 16 17 18 19 20 21 22 23 24 25 26 27 28 29 30 31 32 33 34 35 36 37 38 39 40 41 42 43 44 45 46 47 48 49 50

787
ASUS43 KDMX 200301
RWRIA

WEATHER ROUNDUP FOR IOWA
NATIONAL WEATHER SERVICE DES MOINES IA
1000 PM CDT THU OCT 19 2017

NOTE: "FAIR" INDICATES FEW OR NO CLOUDS BELOW 12,000 FEET WITH NO
SIGNIFICANT WEATHER AND/OR OBSTRUCTIONS TO VISIBILITY.

* - THESE STATIONS ARE NOT NWS STATIONS...THUS NOT UNDER NWS
QUALITY CONTROL.  THEY ALSO DO NOT REPORT WEATHER SUCH
AS PRECIPITATION OR FOG.

IAZ001>003-012>014-020>022-031>034-043>046-200400-
   NORTHWEST IOWA

CITY           SKY/WX    TMP DP  RH WIND       PRES   REMARKS
CARROLL *      CLEAR     73  72  94 S5        29.99R
CHEROKEE *     CLEAR     56  52  86 S6        29.94F
DENISON *      CLEAR     64  52  63 S12       29.99R
LE MARS *      CLEAR     63  52  67 S9        29.92S
ORANGE CITY *  CLEAR     63  54  72 S7        29.92F
SHELDON *      CLEAR     59  50  72 S7        29.91S
SIOUX CITY     CLEAR     55  51  86 SE8       29.93S
SPENCER        CLEAR     56  50  80 S8        29.95S
STORM LAKE *   CLEAR     57  52  82 S10       29.96S
$$

IAZ055>058-069>071-079>083-090>094-200400-
   SOUTHWEST IOWA

CITY           SKY/WX    TMP DP  RH WIND       PRES   REMARKS
ATLANTIC *     CLEAR     59  52  77 SW6       30.00S
AUDUBON *      CLEAR     57  52  82 CALM      30.01S
CLARINDA *       N/A     57  52  82 S6        30.04R
COUNCIL BLFS * CLEAR     64  54  68 S10       29.98S
CRESTON *      CLEAR     63  52  67 S10       30.04S
HARLAN  *      CLEAR     63  52  67 S8        30.02S
LAMONI         CLEAR     63  52  67 S10       30.05S
RED OAK *      CLEAR     61  52  72 S5        30.00S
SHENANDOAH *   CLEAR     66  52  59 S12       30.01R
$$

IAZ047>049-059>061-072>074-084-200400-
   CENTRAL IOWA

CITY           SKY/WX    TMP DP  RH WIND       PRES   REMARKS
AMES           CLEAR     58  54  86 S8        30.02S
ANKENY *       CLEAR     61  54  77 S6        30.04R
BOONE *        CLEAR     59  54  82 S8        30.01S
CHARITON *     CLEAR     57  52  82 S6        30.05R
DES MOINES     CLEAR     63  52  67 S8        30.03R
KNOXVILLE *    CLEAR     63  52  67 SE7       30.04R
MARSHALLTOWN   CLEAR     60  53  77 S9        30.03S
NEWTON *       CLEAR     57  52  82 SE8       30.05S
PELLA *        CLEAR     61  53  74 SE6       30.06S
PERRY *          N/A     58  54  86 SE7       30.01S
$$

IAZ004>006-015-016-023>025-035-036-200400-
   NORTH CENTRAL IOWA

CITY           SKY/WX    TMP DP  RH WIND       PRES   REMARKS
ALGONA *       CLEAR     63  54  72 S14G21    29.97S
CLARION *      CLEAR     63  55  77 S13       30.00S
ESTHERVILLE    CLEAR     57  50  77 S10       29.95S
FORT DODGE *   CLEAR     64  53  67 S9        29.99S
MASON CITY     CLEAR     54  45  71 SE8       30.02S
FOREST CITY *    N/A     54  48  82 SE6       29.99S
WEBSTER CITY * CLEAR     59  52  77 S7        29.99R
IOWA FALLS *     N/A     60  53  78 S10       30.03S
$$

IAZ007>011-017>019-026>030-037>042-050>054-066-200400-
   NORTHEAST IOWA

CITY           SKY/WX    TMP DP  RH WIND       PRES   REMARKS
CEDAR RAPIDS   CLEAR     58  51  78 S8        30.06S
CHARLES CITY * CLEAR     57  43  58 SE8       30.03S
CLINTON *      CLEAR     59  49  69 SE8       30.11S
DECORAH *      CLEAR     57  37  47 S8G16     30.03S
DUBUQUE        CLOUDY    58  43  57 S12       30.09S
MONTICELLO *   CLEAR     57  46  67 SE6       30.08R
OELWEIN *      CLEAR     55  46  71 SE10      30.06R
WATERLOO       CLEAR     59  48  67 SE9       30.03S
$$

IAZ064-065-067-068-078-200400-
   EAST CENTRAL IOWA

CITY           SKY/WX    TMP DP  RH WIND       PRES   REMARKS
DAVENPORT      CLEAR     59  51  75 S8        30.12S
IOWA CITY      CLEAR     58  51  78 CALM      30.09S
MUSCATINE *    CLEAR     55  52  88 CALM      30.09S
QUAD CITIES    CLEAR     60  50  69 CALM      30.10S
$$

IAZ062-063-075>077-085>089-095>099-200400-
   SOUTHEAST IOWA

CITY           SKY/WX    TMP DP  RH WIND       PRES   REMARKS
BURLINGTON     CLEAR     64  53  67 S10       30.10S
FAIRFIELD *    CLEAR     63  50  63 S9        30.07S
FORT MADISON * CLEAR     64  52  63 S9        30.11R
KEOKUK *       CLEAR     64  52  63 S6        30.10R
OSKALOOSA *      N/A     56  51  84 SE8       30.07R
OTTUMWA        CLEAR     63  52  67 S9        30.06S
WASHINGTON *   CLEAR     61  52  72 S9        30.09S
$$

ABBREVIATIONS USED IN REMARKS
   TC - TEMPERATURES IN CELSIUS
  WCI - WIND CHILL INDEX
   HX - HEAT INDEX
  VSB - VISIBILITY
$$





USA.gov is the U.S. government's official web portal to all federal, state and local government web resources and services.